Home > Time Zones > World Clock > Weather > China > Wuhan > Past weeks

Flag for China Weather past 2 weeks in Wuhan, Hubei, China

Now
63 °F

Fog.


Feels Like: 63 °F
Forecast: 57 / 75 °F
Wind: 3 mph from East

Location: Wuhan Airport

Current Time: Apr 21, 2015 at 11:13:42 AM

Latest Report: Apr 21, 2015 at 10:00 AM


Visibility: 3 mi

Pressure: 30.12 "Hg

Humidity: 77%

Dew point: 55 °F

Location of WuhanLocation

Historic Weather in Wuhan — Graph

°F

Wuhan temperature yesterday

Maximum temperature yesterday: 64 °F (at 4:00 PM)
Minimum temperature yesterday: 55 °F (at 12:00 AM)
Average temperature yesterday: 59 °F

Past Weeks' High & Low Weather Summary

 TemperatureHumidityPressure
High79 °F (Apr 16, 2:00 PM)100% (Apr 8, 5:00 AM)30.45 "Hg (Apr 8, 5:00 AM)
Low37 °F (Apr 8, 5:00 AM)25% (Apr 11, 5:00 PM)29.62 "Hg (Apr 18, 4:00 AM)
Average59 °F73%30.05 "Hg
* Reported Apr 6 9:00 AM — Apr 21 9:00 AM, Wuhan, Weather by CustomWeather, © 2015

Note: Actual official high and low records may vary slightly from our data, if they occured in-between our weather recording intervals... More about our weather records

Advertising

Wuhan weather history for previous 24 hours

 ConditionsComfort  
Time TempWeatherWind HumidityBarometerVisibility
9:00 AM
Tue, Apr 21
61 °FFog.3 mph77%30.12 "Hg2 mi
8:00 AM57 °FFog.6 mph82%30.12 "Hg2 mi
7:00 AM54 °FClear.6 mph88%30.09 "Hg4 mi
6:00 AM50 °FClear.3 mph94%30.07 "Hg4 mi
5:00 AM52 °FClear.1 mph94%30.07 "Hg4 mi
4:00 AM52 °FClear.No wind88%30.04 "Hg4 mi
3:00 AM52 °FClear.1 mph88%30.04 "Hg10 mi
2:00 AM52 °FPassing clouds.3 mph88%30.04 "HgN/A
1:00 AM54 °FClear.No wind94%30.07 "Hg10 mi
12:00 AM57 °FClear.1 mph72%30.07 "Hg10 mi
11:00 PM
Mon, Apr 20
57 °FClear.1 mph88%30.07 "Hg10 mi
10:00 PM55 °FClear.No wind94%30.07 "Hg10 mi
9:00 PM59 °FClear.No wind82%30.07 "Hg10 mi
8:00 PM63 °FPassing clouds.6 mph68%30.01 "HgN/A
7:00 PM63 °FPassing clouds.6 mph68%29.98 "HgN/A
6:00 PM64 °FSunny.3 mph60%29.98 "Hg10 mi
5:00 PM64 °FScattered clouds.6 mph60%29.98 "HgN/A
4:00 PM64 °FScattered clouds.8 mph60%29.98 "HgN/A
3:00 PM63 °FScattered clouds.6 mph64%30.01 "HgN/A
2:00 PM63 °FPartly sunny.8 mph64%30.01 "HgN/A
1:00 PM61 °FPartly sunny.8 mph68%30.04 "HgN/A
12:00 PM61 °FPartly sunny.10 mph68%30.04 "HgN/A
11:00 AM57 °FScattered clouds.10 mph77%30.04 "HgN/A
Weather by CustomWeather, © 2015

See weather overviewHow to use our weather pages